Location: Kirchberg
(47.4114°N, 9.0398°E)
Time: 20:41:57
(UTC+00:00)

HJ-1C - Pass Details

Date: 03 March 2021
Orbit: 428 x 440 km, 97.1° (Epoch: 14 April)

Event Time Altitude Azimuth Distance (km) Brightness Sun altitude
Rises 18:31:48 0° 176° (S) 2,415 7.0 -14.3°
Reaches altitude 10° 18:33:50 10° 181° (S) 1,549 6.1 -14.6°
Maximum altitude 18:37:06 54° 260° (W) 539 4.1 -15.2°
Drops below altitude 10° 18:40:22 10° 339° (NNW) 1,556 6.5 -15.7°
Sets 18:42:26 0° 344° (NNW) 2,428 7.4 -16.1°
